Location: Santa Barbara
(34.4500°N, 119.7700°W)
Time: 05:15:56
(UTC-07:00)

Cosmos 1626 Rocket - Visible Passes

Search period start: 25 June 2016 00:00
Search period end: 05 July 2016 00:00
Orbit: 602 x 633 km, 82.5° (Epoch: 25 June)

Date Brightness Start Highest point End Pass type
(mag) Time Alt. Az. Time Alt. Az. Time Alt. Az.
25 Jun 6.7 03:49:55 10° NE 03:51:11 11° ENE 03:52:25 10° E visible
26 Jun 6.1 04:04:55 10° NNE 04:08:15 21° ENE 04:11:36 10° SE visible
27 Jun 4.9 04:21:07 10° N 04:25:15 40° E 04:29:23 10° SSE visible
28 Jun 3.6 04:37:46 10° N 04:42:09 82° E 04:46:33 10° S visible
29 Jun 6.6 03:19:32 10° NE 03:20:53 11° ENE 03:22:15 10° E visible
29 Jun 3.8 04:54:45 10° NNW 04:58:58 49° W 05:03:12 10° SSW visible
30 Jun 5.9 03:34:36 10° NNE 03:37:59 21° ENE 03:41:22 10° SE visible
30 Jun 4.7 05:12:07 10° NW 05:15:42 25° W 05:19:18 10° SW visible
01 Jul 4.8 03:50:49 10° N 03:54:58 41° E 03:59:08 10° SSE visible
02 Jul 3.6 04:07:27 10° N 04:11:52 83° E 04:15:35 15° S visible
03 Jul 6.4 02:49:09 10° NE 02:50:36 11° ENE 02:52:04 10° E visible
03 Jul 3.8 04:24:27 10° NNW 04:28:41 48° W 04:31:32 19° SSW visible
04 Jul 5.8 03:04:17 10° NNE 03:07:42 22° ENE 03:10:31 13° ESE visible
04 Jul 4.7 04:41:50 10° NW 04:45:25 25° W 04:47:35 17° SW visible
